Home > Weather > Marrakech > Past weeks

Flag for Morocco Past Weather in Marrakech, Morocco — Yesterday and Last 2 Weeks

Now
77 °F

Passing clouds.


Feels Like: 79 °F
Forecast: 66 / 94 °F
Wind: 9 mph from Northwest

Location: Marrakech Airport

Current Time: Jun 29, 2016 at 9:55:33 PM

Latest Report: Jun 29, 2016 at 9:30 PM


Visibility: N/A

Pressure: 30.07 "Hg

Humidity: 51%

Dew Point: 57 °F

Location of MarrakechLocation

Past Weather in Marrakech — Graph

°F

Marrakech Temperature Yesterday

Maximum temperature yesterday: 90 °F (at 4:00 PM)
Minimum temperature yesterday: 61 °F (at 6:00 AM)
Average temperature yesterday: 75 °F

High & Low Weather Summary for the Past Weeks

 TemperatureHumidityPressure
High106 °F (Jun 23, 2:30 PM)88% (Jun 29, 6:30 AM)30.18 "Hg (Jun 29, 6:30 AM)
Low59 °F (Jun 17, 5:30 AM)6% (Jun 23, 4:30 PM)29.89 "Hg (Jun 15, 3:00 PM)
Average79 °F35%30.01 "Hg
* Reported Jun 14 8:00 PM — Jun 29 8:30 PM, Marrakech, Weather by CustomWeather, © 2016

Note: Actual official high and low records may vary slightly from our data, if they occured in-between our weather recording intervals... More about our weather records

Advertising

Marrakech Weather History for the Previous 24 Hours

Scroll right to see more
 ConditionsComfort  
Time TempWeatherWind HumidityBarometerVisibility
8:30 PM
Wed, Jun 29
79 °FPassing clouds.9 mph48%30.04 "HgN/A
8:00 PM81 °FPassing clouds.10 mph45%30.04 "HgN/A
7:30 PM82 °FPassing clouds.10 mph42%30.01 "HgN/A
7:00 PM84 °FClear.14 mph37%30.01 "Hg10 mi
6:30 PM86 °FPassing clouds.16 mph35%29.98 "HgN/A
6:00 PM88 °FPassing clouds.14 mph31%29.98 "HgN/A
5:30 PM90 °FPassing clouds.7 mph24%29.98 "HgN/A
5:00 PM90 °FPassing clouds.8 mph24%29.98 "HgN/A
4:30 PM88 °FPassing clouds.8 mph27%29.98 "HgN/A
4:00 PM88 °FPassing clouds.10 mph29%29.98 "HgN/A
3:30 PM88 °FSunny.7 mph29%30.01 "Hg10 mi
2:30 PM86 °FPassing clouds.7 mph33%30.01 "HgN/A
2:00 PM86 °FPassing clouds.6 mph33%30.01 "HgN/A
1:30 PM84 °FSunny.6 mph35%30.01 "Hg10 mi
1:00 PM82 °FSunny.6 mph40%30.04 "Hg10 mi
12:30 PM81 °FPassing clouds.7 mph45%30.04 "HgN/A
12:00 PM79 °FPassing clouds.6 mph48%30.04 "HgN/A
11:30 AM77 °FPassing clouds.6 mph51%30.04 "HgN/A
11:00 AM75 °FClear.7 mph54%30.04 "Hg5 mi
10:30 AM73 °FClear.7 mph57%30.04 "Hg5 mi
10:00 AM72 °FClear.6 mph61%30.07 "Hg5 mi
9:30 AM70 °FClear.6 mph64%30.07 "Hg5 mi
9:00 AM68 °FScattered clouds.6 mph69%30.07 "Hg5 mi
8:00 AM64 °FPartly sunny.5 mph78%30.04 "Hg4 mi
7:30 AM64 °FPartly sunny.5 mph78%30.04 "HgN/A
7:00 AM63 °FPartly sunny.7 mph83%30.04 "Hg3 mi
6:30 AM63 °FPartly sunny.7 mph88%30.04 "Hg3 mi
6:00 AM63 °FPartly sunny.7 mph83%30.01 "Hg3 mi
5:30 AM63 °FPartly sunny.6 mph83%30.01 "Hg3 mi
5:00 AM63 °FSunny.6 mph83%30.01 "Hg10 mi
4:30 AM63 °FSunny.7 mph83%30.01 "Hg10 mi
4:00 AM63 °FClear.6 mph83%30.01 "Hg10 mi
3:30 AM64 °FClear.7 mph78%30.01 "Hg10 mi
3:00 AM64 °FClear.7 mph73%30.01 "Hg10 mi
2:30 AM66 °FClear.7 mph73%29.98 "Hg10 mi
2:00 AM66 °FClear.8 mph68%29.98 "Hg10 mi
1:30 AM68 °FClear.8 mph64%29.98 "Hg10 mi
12:00 AM70 °FClear.10 mph60%30.01 "Hg10 mi
11:30 PM
Tue, Jun 28
72 °FClear.8 mph57%30.01 "Hg10 mi
11:00 PM72 °FClear.10 mph57%30.01 "Hg10 mi
10:30 PM73 °FClear.9 mph50%30.01 "Hg10 mi
10:00 PM75 °FClear.9 mph47%30.01 "Hg10 mi
9:30 PM77 °FPassing clouds.6 mph44%29.98 "HgN/A
9:00 PM77 °FPassing clouds.9 mph42%29.98 "HgN/A
Weather by CustomWeather, © 2016

See weather overviewHow to use our weather pages